Rarotonga, Cook Islands

1:48 AM -10 on June 19, 2018 (GMT -1000)
Rarotonga International

Weather History for NCRG - September, 2017

Change the Weather History Date:

Monday, September 18, 2017

  Actual Average Record
Temperature  
Mean Temperature 72 °F -  
Max Temperature 78 °F - - ()
Min Temperature 66 °F - - ()
Cooling Degree Days 7    
Growing Degree Days 22 (Base 50)    
Moisture  
Dew Point 62 °F    
Average Humidity 67    
Maximum Humidity 78    
Minimum Humidity 52    
Precipitation  
Precipitation 0.00 in - - ()
Sea Level Pressure  
Sea Level Pressure 29.99 in    
Wind  
Wind Speed 6 mph ()    
Max Wind Speed 10 mph    
Max Gust Speed -    
Visibility 7.1 miles    
Events      
T = Trace of Precipitation, MM = Missing Value Source: Averaged Metar Reports

Daily Weather History Graph

Daily Weather History Graph

Search for Another Location

Airport or City:

Astronomy

Sep. 18, 2017 Rise Set
Actual Time 6:32 AM -10 6:34 PM -10
Civil Twilight 6:10 AM -10 6:56 PM -10
Nautical Twilight 5:44 AM -10 7:22 PM -10
Astronomical Twilight 5:18 AM -10 7:48 PM -10
Moon 5:38 AM -10 (9/18) 5:31 PM -10 (9/18)
Length of Visible Light 12h 46m
Length of Day
12h 02m
Waning Crescent, 2% of the Moon is Illuminated
Sep 18
Waning Crescent
Sep 19
New
Sep 27
First Quarter
Oct 5
Full
Oct 12
Last Quarter

Hourly Weather History & Observations

Time (-10) Temp. Dew Point Humidity Pressure Visibility Wind Dir Wind Speed Gust Speed Precip Events Conditions
12:00 AM 68.0 °F 57.2 °F 68% 30.06 in 6.2 mi ESE 6.9 mph - N/A   Scattered Clouds
1:00 AM 68.0 °F 57.2 °F 68% 30.04 in 6.2 mi ESE 6.9 mph - N/A   Partly Cloudy
2:00 AM 69 °F 62 °F 72% 30.03 in 12 mi ESE 8.1 mph - -   Partly Cloudy
2:00 AM 68.0 °F 57.2 °F 68% 30.01 in 6.2 mi ESE 8.1 mph - N/A   Unknown
3:00 AM 68.0 °F 57.2 °F 68% 30.01 in 6.2 mi ESE 8.1 mph - N/A   Unknown
4:00 AM 68.0 °F 57.2 °F 68% 29.98 in 6.2 mi ESE 4.6 mph - N/A   Unknown
5:00 AM 66 °F 55 °F 58% 30.01 in 12 mi SE 3.5 mph - -   Partly Cloudy
5:00 AM 66.2 °F 55.4 °F 68% 30.01 in 6.2 mi SE 3.5 mph - N/A   Unknown
6:00 AM 66.2 °F 55.4 °F 68% 30.01 in 6.2 mi SE 3.5 mph - N/A   Partly Cloudy
7:00 AM 66.2 °F 59.0 °F 78% 30.04 in 6.2 mi SE 4.6 mph - N/A   Partly Cloudy
8:00 AM 72 °F 63 °F 65% 30.04 in 31 mi East 8.1 mph - -   Partly Cloudy
8:00 AM 71.6 °F 60.8 °F 69% 30.04 in 6.2 mi East 8.1 mph - N/A   Partly Cloudy
11:00 AM 77 °F 63 °F 52% 30.03 in 31 mi ENE 10.4 mph - -   Partly Cloudy
12:00 PM 78.8 °F 64.4 °F 61% 30.01 in 6.2 mi East 9.2 mph - N/A   Partly Cloudy
1:00 PM 78.8 °F 64.4 °F 61% 29.98 in 6.2 mi ENE 10.4 mph - N/A   Partly Cloudy
2:00 PM 78 °F 64 °F 53% 29.98 in 31 mi ENE 10.4 mph - -   Partly Cloudy
2:00 PM 77.0 °F 64.4 °F 65% 29.98 in 6.2 mi ENE 10.4 mph - N/A   Scattered Clouds
3:00 PM 77.0 °F 64.4 °F 65% 29.95 in 6.2 mi East 9.2 mph - N/A   Mostly Cloudy
4:00 PM 77.0 °F 64.4 °F 65% 29.95 in 6.2 mi ENE 8.1 mph - N/A   Mostly Cloudy
5:00 PM 76 °F 64 °F 57% 29.95 in 31 mi East 8.1 mph - -   Partly Cloudy
5:00 PM 75.2 °F 64.4 °F 69% 29.95 in 6.2 mi East 8.1 mph - N/A   Mostly Cloudy
6:00 PM 75.2 °F 64.4 °F 69% 29.95 in 6.2 mi East 5.8 mph - N/A   Mostly Cloudy
7:00 PM 73.4 °F 64.4 °F 73% 29.95 in 6.2 mi ESE 5.8 mph - N/A   Mostly Cloudy
8:00 PM 71 °F 63 °F 70% 29.97 in 12 mi ESE 5.8 mph - -   Partly Cloudy
8:00 PM 71.6 °F 62.6 °F 73% 29.95 in 6.2 mi ESE 5.8 mph - N/A   Mostly Cloudy
9:00 PM 71.6 °F 64.4 °F 78% 29.98 in 6.2 mi ESE 6.9 mph - N/A   Mostly Cloudy
10:00 PM 71.6 °F 64.4 °F 78% 29.98 in 6.2 mi ESE 5.8 mph - N/A   Mostly Cloudy
11:00 PM 72 °F 65 °F 73% 29.97 in 12 mi East 6.9 mph - -   Partly Cloudy
11:00 PM 73.4 °F 64.4 °F 73% 29.95 in 6.2 mi East 6.9 mph - N/A   Mostly Cloudy